Location: *
(44.1392°N, 4.8079°E)
Time: 00:15:08
(UTC+00:00)

deb Agena D - Pass Details

Date: 29 January 2022
Orbit: 936 x 1065 km, 100.4° (Epoch: 16 May)

Event Time Altitude Azimuth Distance (km) Brightness Sun altitude
Exits shadow 20:19:11 13° 357° (N) 2,583 ? -38.1°
Drops below altitude 10° 20:19:55 10° 354° (N) 2,842 ? -38.2°
Sets 20:22:33 0° 349° (N) 3,815 ? -38.7°
